Wind_Speed
6 8 12 15 16 18 19 19 18 18 18 19 18 17 17 17 16 17 17 18 18 18 18 19 19 19 20 20 21 21 21 22 23 24 24 25 25 26 27 28 29 29 30
6 7 10 13 16 17 18 18 18 18 18 19 18 18 18 18 18 18 18 18 19 20 20 21 21 21 22 22 23 24 24 25 25 27 28 28 29 30 30 31 31 32 33
5 7 9 10 13 16 17 17 18 18 19 19 19 19 19 19 19 19 19 19 20 21 22 22 23 23 24 25 26 26 27 28 28 29 30 31 32 33 33 34 35 36 36
5 6 9 10 11 13 16 17 17 18 19 19 19 19 20 19 19 19 19 20 21 22 23 24 24 25 26 27 28 29 30 31 32 32 33 34 35 36 36 37 38 39 39
5 5 7 9 10 12 14 15 16 18 19 19 20 20 20 19 19 19 20 21 22 22 23 24 26 26 28 29 30 31 31 32 33 34 35 36 37 38 39 39 40 41 42
6 6 6 7 8 10 12 13 14 16 17 18 18 19 20 20 20 20 21 22 23 24 25 26 28 29 30 31 32 32 33 34 35 36 37 38 39 41 42 43 44 44 45
8 8 8 9 9 9 11 13 14 15 16 17 18 19 20 21 22 22 23 24 25 26 28 29 30 30 31 32 33 34 36 37 38 39 40 42 43 44 46 47 48 49 49
9 9 9 10 11 11 12 13 15 16 17 17 18 20 21 23 24 25 26 27 27 28 29 30 31 32 33 35 36 37 38 40 41 42 44 45 47 48 49 50 52 53 54
12 12 12 13 14 14 14 15 16 17 18 18 19 21 24 25 26 26 27 28 30 31 32 33 34 35 36 37 39 40 41 43 44 46 47 49 50 51 52 54 55 56 56
14 14 14 15 15 15 16 17 17 18 18 19 21 22 24 26 27 28 29 30 32 33 34 35 36 37 38 39 41 42 45 46 48 49 50 51 53 54 55 56 57 58 58
16 16 17 17 17 17 17 17 18 19 20 21 22 24 25 28 29 30 31 32 33 35 35 37 38 39 41 42 44 46 48 49 50 52 53 54 55 56 58 59 59 60 60
19 19 19 19 19 19 19 19 20 21 22 23 24 26 27 28 29 31 32 33 35 36 38 39 41 43 44 46 47 48 49 51 52 54 55 56 57 58 59 60 61 61 61
21 21 20 20 20 21 21 21 23 24 26 28 28 28 29 30 32 33 35 36 37 39 41 43 44 45 47 48 48 50 51 53 54 55 56 58 59 60 60 60 60 60 60
23 23 23 23 23 23 24 24 25 26 28 28 29 30 31 33 34 35 36 37 38 39 41 43 44 46 48 49 50 51 53 54 55 56 57 58 58 58 58 58 57 56 56
24 25 25 25 24 24 25 26 27 28 29 29 30 32 33 35 37 38 38 39 39 40 42 44 47 48 50 51 52 53 54 55 56 56 56 56 56 55 55 54 53 53 53
25 26 26 25 25 26 27 28 29 30 30 32 34 35 35 36 36 37 38 39 41 43 45 47 48 50 51 52 53 54 54 55 55 55 54 53 52 52 51 51 51 51 50
25 26 25 25 26 27 28 29 31 32 33 34 35 34 34 34 35 37 40 41 44 45 47 48 49 51 52 53 53 53 53 53 52 52 51 50 50 49 49 49 48 48 46
25 25 26 25 27 28 28 29 30 31 32 32 32 32 34 35 37 39 41 43 45 46 48 49 51 52 52 51 51 51 50 50 49 48 48 47 46 46 45 45 45 44 43
24 25 25 26 26 26 26 27 28 28 29 30 32 34 36 38 40 42 44 45 47 48 50 51 51 51 50 50 49 48 48 47 47 46 46 45 44 44 43 43 42 40 38
22 23 23 23 23 23 24 25 26 27 30 32 34 37 39 41 42 43 45 46 48 49 50 50 49 49 48 47 46 46 46 45 45 44 43 43 42 42 40 39 38 36 34
21 21 21 22 22 23 24 26 28 31 33 35 37 38 40 41 43 44 45 46 47 48 48 47 47 46 45 44 44 43 43 42 42 42 41 41 40 38 37 36 35 33 32
19 20 20 22 23 25 27 29 31 33 35 36 37 39 40 41 42 43 44 45 45 45 44 44 43 42 42 41 41 41 40 40 39 38 38 37 36 35 34 33 32 31 30
18 20 21 23 25 27 29 30 32 33 35 36 38 39 40 41 42 42 42 42 42 41 41 40 39 39 38 38 38 37 37 37 37 36 35 35 34 33 32 32 31 29 28
19 21 22 24 26 28 30 31 33 34 35 37 37 38 39 39 40 40 40 40 39 38 37 36 36 36 35 36 36 36 35 35 35 34 33 32 32 31 31 30 29 28 27
21 23 25 27 28 30 31 32 33 34 35 36 37 37 37 37 37 36 36 35 35 34 33 33 33 33 33 34 34 34 33 33 33 32 32 32 31 30 29 29 28 27 26
23 25 27 28 30 31 32 33 34 34 34 35 35 34 34 33 33 32 32 32 32 31 31 31 30 30 31 32 32 32 32 32 31 31 31 30 30 29 28 27 27 26 25
Wind_Direction
227 217 209 209 208 208 209 210 211 212 214 217 221 224 227 232 237 239 242 247 250 252 255 259 262 265 267 270 271 273 274 275 276 276 277 279 281 281 281 281 281 281 281
232 220 212 211 210 210 210 213 214 216 218 222 225 227 231 236 239 242 247 250 252 255 258 261 264 267 270 273 275 276 277 278 278 278 279 279 280 280 281 280 281 281 281
237 220 213 213 215 214 213 216 218 221 223 225 228 231 236 240 243 246 250 254 256 259 262 264 266 268 271 273 275 276 278 279 279 280 280 281 282 282 282 282 281 281 280
254 238 225 222 218 218 221 220 221 224 224 228 232 236 240 243 246 248 252 255 259 262 264 265 268 271 273 274 276 278 279 280 281 282 282 283 283 284 284 284 283 283 282
266 254 237 230 223 222 222 223 225 227 227 232 236 240 243 246 248 252 255 258 261 264 267 269 271 273 275 277 279 281 281 282 283 284 284 284 284 285 285 285 285 284 283
264 260 248 240 234 232 232 232 233 233 236 240 242 245 248 251 253 256 259 261 264 267 270 272 273 275 277 279 281 282 284 284 284 285 285 285 285 286 286 286 285 284 283
266 259 252 246 241 243 244 239 240 240 243 247 248 250 254 257 259 261 262 264 266 269 270 272 275 277 279 281 282 284 285 285 285 285 285 286 286 286 286 286 285 285 283
268 268 264 261 255 251 250 249 247 246 249 253 257 259 262 264 265 266 268 269 269 271 273 276 279 280 280 281 283 284 285 286 287 286 286 287 287 287 286 286 285 285 284
263 265 266 266 263 260 259 259 256 255 256 261 267 266 265 265 265 267 271 272 273 274 276 278 281 282 282 283 284 285 286 287 287 287 287 287 287 287 287 286 286 285 285
265 264 265 267 270 270 266 266 266 264 265 267 270 271 272 271 270 272 275 277 277 278 280 281 283 283 285 285 285 287 287 288 288 288 288 288 288 288 288 287 287 286 285
265 266 263 266 270 271 270 270 271 273 272 271 272 276 278 277 276 277 277 277 279 281 282 283 283 284 285 286 286 288 289 289 288 288 289 289 289 289 288 288 287 286 286
264 264 263 266 268 269 268 271 274 276 276 275 275 278 280 280 279 280 280 281 281 282 284 284 285 286 287 287 288 289 289 289 289 289 289 290 290 290 289 289 288 287 287
265 266 268 270 272 273 273 276 277 278 278 279 279 279 279 280 281 281 283 284 284 285 286 287 287 288 289 289 289 290 290 290 290 291 291 291 291 290 290 289 289 288 287
265 270 270 272 274 277 277 278 279 280 281 280 281 280 282 282 282 284 286 287 286 287 288 289 290 290 290 290 291 291 291 291 291 292 292 292 291 291 291 291 290 289 289
269 272 273 275 275 276 277 279 280 281 281 281 280 281 282 282 283 285 286 288 289 289 290 290 291 291 291 292 293 293 293 293 293 293 293 293 293 293 293 292 291 290 290
270 273 274 275 276 277 277 279 281 282 281 280 280 281 282 284 286 287 288 289 290 291 291 291 292 293 293 294 294 294 294 294 294 295 295 294 294 294 294 293 293 292 291
269 273 275 276 278 281 281 281 281 280 280 281 282 283 284 286 288 290 291 292 293 293 293 293 294 294 294 295 295 295 295 295 296 296 296 296 296 295 295 295 295 294 292
268 270 273 276 278 278 278 280 282 283 284 284 285 287 289 291 292 292 292 293 293 294 294 295 295 296 296 296 296 297 297 298 298 298 298 298 298 297 297 297 296 295 294
268 270 272 275 276 276 278 281 283 284 285 287 289 291 292 292 292 293 294 294 295 295 296 297 298 298 298 298 298 299 299 299 300 300 300 300 300 299 298 298 299 298 296
267 269 271 274 276 278 280 283 284 286 288 290 291 292 292 293 293 294 295 296 296 297 298 299 299 299 299 299 299 300 300 301 301 301 302 301 301 300 300 300 300 299 297
272 274 276 278 281 282 283 285 287 289 291 292 292 293 293 294 295 297 297 298 299 300 301 301 301 301 300 300 300 301 302 302 302 302 302 303 303 302 302 301 300 300 298
275 277 279 281 283 285 286 288 290 291 292 293 294 295 296 297 298 299 300 300 301 302 302 302 302 302 302 302 303 303 304 304 304 304 303 304 304 304 304 303 302 300 300
279 281 282 285 287 289 290 292 293 294 295 296 297 298 299 300 300 301 302 302 303 303 304 304 304 305 305 305 305 306 306 306 306 306 305 305 305 304 304 304 303 302 300
285 287 289 290 291 292 293 294 295 296 296 297 298 299 300 301 302 303 304 304 305 306 307 307 307 307 307 307 307 307 307 308 308 308 307 306 305 304 304 304 303 302 300
288 290 291 292 293 294 295 296 297 297 298 298 299 301 302 303 305 306 307 308 309 309 309 309 309 310 310 310 310 311 310 310 310 310 309 308 306 305 304 303 302 302 301
291 293 294 295 296 296 297 298 298 299 300 301 302 303 304 305 307 308 309 311 312 312 312 313 314 314 315 315 314 314 314 313 313 313 312 311 309 307 305 304 302 301 300
Height
5827 5827 5828 5829 5831 5833 5835 5838 5840 5843 5845 5848 5850 5852 5854 5855 5856 5858 5859 5860 5861 5862 5862 5862 5862 5862 5862 5862 5862 5861 5861 5861 5860 5859 5858 5857 5856 5854 5853 5851 5850 5848 5847
5825 5825 5826 5827 5829 5831 5833 5836 5838 5840 5842 5844 5847 5848 5850 5851 5853 5854 5855 5856 5856 5857 5857 5858 5857 5857 5857 5856 5856 5855 5854 5854 5853 5852 5850 5849 5848 5846 5845 5843 5841 5840 5838
5824 5824 5825 5826 5827 5829 5831 5833 5835 5837 5839 5841 5843 5844 5846 5847 5848 5849 5850 5851 5851 5852 5852 5852 5852 5851 5851 5850 5849 5848 5847 5846 5845 5844 5842 5840 5839 5837 5836 5834 5832 5830 5828
5823 5823 5824 5824 5825 5827 5828 5830 5832 5833 5835 5837 5839 5840 5842 5843 5844 5845 5845 5846 5846 5846 5846 5846 5845 5845 5844 5843 5842 5841 5839 5838 5836 5835 5833 5831 5829 5827 5825 5823 5821 5819 5817
5822 5822 5822 5823 5823 5825 5826 5827 5829 5830 5832 5833 5835 5836 5837 5838 5839 5840 5840 5840 5840 5840 5840 5840 5839 5838 5837 5836 5834 5833 5831 5829 5827 5826 5824 5821 5819 5817 5814 5812 5810 5808 5805
5821 5821 5821 5821 5821 5822 5823 5824 5825 5827 5828 5829 5830 5831 5832 5833 5834 5834 5835 5835 5834 5834 5834 5833 5832 5831 5829 5828 5826 5824 5822 5820 5818 5816 5814 5811 5808 5806 5803 5800 5798 5796 5793
5819 5819 5819 5819 5819 5820 5821 5821 5822 5823 5824 5825 5825 5826 5827 5828 5828 5829 5828 5828 5828 5827 5826 5825 5824 5823 5821 5819 5817 5815 5813 5810 5808 5806 5803 5800 5797 5794 5791 5787 5784 5781 5778
5816 5817 5817 5817 5817 5818 5818 5818 5819 5819 5820 5820 5821 5821 5822 5822 5822 5822 5821 5821 5820 5819 5818 5817 5816 5814 5812 5810 5807 5805 5802 5799 5796 5793 5790 5787 5783 5780 5776 5773 5769 5765 5761
5813 5814 5814 5814 5814 5814 5814 5814 5814 5814 5815 5815 5815 5815 5815 5816 5815 5815 5815 5814 5812 5811 5810 5808 5806 5804 5802 5800 5797 5794 5791 5788 5784 5780 5777 5773 5769 5765 5760 5756 5752 5748 5745
5809 5809 5809 5809 5810 5810 5810 5810 5809 5809 5810 5810 5810 5809 5809 5809 5808 5808 5807 5805 5804 5802 5801 5799 5796 5794 5791 5788 5785 5782 5779 5775 5771 5766 5762 5758 5753 5748 5743 5739 5734 5730 5726
5804 5804 5803 5804 5805 5805 5805 5805 5805 5805 5804 5804 5803 5803 5802 5801 5800 5799 5798 5796 5794 5792 5790 5788 5786 5783 5780 5777 5773 5769 5765 5761 5757 5752 5747 5742 5737 5731 5726 5721 5716 5711 5706
5799 5799 5798 5799 5800 5800 5799 5799 5799 5799 5798 5797 5796 5795 5794 5793 5792 5790 5788 5787 5785 5782 5780 5777 5774 5771 5768 5764 5760 5756 5751 5747 5742 5736 5731 5725 5720 5714 5708 5702 5696 5691 5686
5792 5792 5793 5793 5794 5794 5793 5793 5792 5792 5791 5789 5788 5787 5786 5784 5783 5781 5779 5777 5774 5772 5769 5766 5762 5758 5754 5750 5746 5741 5736 5731 5726 5720 5714 5708 5702 5696 5690 5684 5678 5672 5667
5785 5785 5786 5786 5786 5786 5786 5786 5785 5784 5783 5781 5780 5778 5777 5775 5773 5771 5769 5766 5763 5760 5757 5753 5749 5745 5741 5736 5731 5726 5721 5715 5709 5703 5697 5691 5685 5679 5673 5667 5661 5656 5650
5778 5779 5779 5778 5778 5778 5779 5778 5777 5776 5775 5773 5771 5769 5768 5766 5764 5761 5759 5756 5752 5749 5745 5741 5736 5732 5727 5721 5716 5710 5705 5699 5693 5686 5680 5674 5668 5662 5656 5650 5645 5639 5634
5770 5771 5771 5771 5771 5771 5770 5769 5768 5767 5766 5765 5762 5761 5758 5756 5753 5751 5747 5744 5740 5736 5732 5727 5722 5717 5712 5706 5700 5694 5688 5682 5676 5670 5664 5658 5652 5646 5640 5634 5629 5624 5618
5763 5764 5764 5764 5763 5763 5762 5761 5760 5758 5757 5755 5753 5750 5748 5746 5743 5739 5736 5732 5728 5724 5719 5713 5708 5702 5697 5691 5684 5678 5672 5666 5660 5654 5648 5642 5637 5631 5625 5620 5614 5609 5604
5756 5756 5756 5756 5756 5755 5754 5753 5751 5749 5747 5745 5743 5740 5738 5735 5731 5727 5723 5719 5714 5709 5704 5699 5694 5687 5681 5675 5669 5663 5657 5651 5645 5639 5634 5628 5623 5617 5611 5606 5601 5596 5591
5748 5749 5749 5748 5747 5746 5745 5744 5742 5740 5738 5736 5733 5731 5727 5723 5720 5715 5710 5706 5701 5695 5690 5684 5678 5672 5666 5660 5654 5649 5643 5637 5631 5626 5620 5615 5609 5604 5599 5593 5588 5583 5579
5741 5741 5741 5740 5739 5738 5737 5736 5734 5732 5730 5727 5724 5720 5716 5712 5707 5703 5698 5692 5687 5682 5676 5670 5664 5658 5652 5646 5641 5635 5630 5624 5619 5613 5608 5603 5597 5592 5587 5582 5577 5573 5568
5735 5734 5734 5733 5732 5731 5729 5727 5725 5723 5720 5717 5713 5709 5705 5700 5695 5690 5685 5679 5674 5668 5662 5656 5650 5645 5639 5634 5628 5623 5618 5612 5607 5602 5596 5591 5586 5581 5576 5572 5567 5563 5559
5728 5727 5726 5725 5724 5723 5721 5718 5716 5713 5709 5706 5702 5697 5693 5688 5683 5678 5672 5667 5661 5655 5650 5644 5638 5633 5627 5622 5617 5612 5606 5601 5596 5591 5586 5581 5576 5571 5567 5562 5558 5554 5550
5722 5721 5719 5718 5716 5714 5712 5709 5706 5702 5698 5695 5690 5686 5681 5676 5671 5666 5661 5655 5650 5644 5638 5633 5627 5622 5617 5612 5606 5601 5597 5592 5586 5581 5576 5571 5567 5562 5558 5554 5549 5546 5542
5715 5714 5712 5710 5708 5705 5702 5699 5696 5692 5688 5684 5679 5675 5670 5665 5660 5655 5650 5644 5639 5633 5628 5623 5617 5612 5607 5602 5597 5592 5587 5582 5577 5572 5567 5563 5558 5554 5549 5545 5541 5538 5534
5708 5706 5704 5702 5699 5696 5693 5689 5686 5682 5678 5674 5669 5665 5660 5655 5650 5645 5639 5634 5629 5624 5619 5614 5609 5604 5598 5593 5588 5583 5578 5573 5568 5563 5559 5554 5549 5545 5541 5537 5533 5530 5527
5700 5698 5695 5693 5690 5687 5683 5679 5676 5672 5668 5663 5659 5655 5650 5646 5641 5636 5631 5626 5621 5616 5611 5606 5601 5596 5591 5586 5580 5575 5570 5565 5560 5555 5550 5546 5541 5536 5532 5529 5525 5522 5519